CW6427 Weather Reports


Display with metric or nautical units.
time (UTC)temp
F
wind
direction
speed
MPH
gust
MPH
rain 1hr
in
rain 24hr
in
rain mn
in
humidity
%
barometer
mb
20260901003846 65 175 0.0 0.0 0.01 0.15 0.15 100 1019.5
20260901002846 65 175 0.0 0.0 0.01 0.15 0.15 100 1019.4
20260901001846 65 175 0.0 0.0 0.01 0.15 0.15 100 1019.4
20260901000845 65 175 0.0 0.0 0.01 0.15 0.15 100 1019.2
20260831235845 65 175 0.0 0.0 0.01 0.15 0.15 100 1019.0
20260831234845 65 175 0.0 0.0 0.01 0.15 0.15 100 1019.2
20260831233845 65 175 0.0 3.0 0.00 0.14 0.14 100 1019.2
20260831232845 65 175 1.0 3.0 0.00 0.14 0.14 100 1019.2
20260831231845 66 175 2.0 3.0 0.00 0.14 0.14 100 1019.2
20260831230844 66 175 2.0 5.0 0.01 0.14 0.14 100 1019.3
20260831225844 66 174 3.0 5.0 0.01 0.14 0.14 100 1019.3
20260831224844 66 187 2.0 6.0 0.03 0.14 0.14 100 1019.3
20260831223844 66 181 4.0 6.0 0.04 0.14 0.14 100 1019.3
20260831222844 66 176 3.0 6.0 0.04 0.14 0.14 100 1019.3
20260831221843 66 155 3.0 5.0 0.04 0.14 0.14 100 1019.4
20260831215843 66 155 3.0 7.0 0.03 0.13 0.13 99 1019.5
20260831214843 66 158 6.0 6.0 0.01 0.11 0.11 99 1019.6
20260831213842 66 167 3.0 5.0 0.00 0.10 0.10 99 1019.8
20260831212842 66 167 3.0 5.0 0.00 0.10 0.10 99 1019.8
20260831210842 65 142 3.0 4.0 0.00 0.10 0.10 99 1020.1
20260831205842 65 136 3.0 4.0 0.00 0.10 0.10 99 1020.2
20260831204842 65 125 3.0 4.0 0.00 0.10 0.10 99 1020.4
20260831202842 65 138 3.0 7.0 0.00 0.10 0.10 99 1020.3
20260831201841 65 132 4.0 8.0 0.00 0.10 0.10 99 1020.4
20260831200841 65 118 4.0 8.0 0.00 0.10 0.10 99 1020.3
20260831195841 65 144 6.0 9.0 0.00 0.10 0.10 98 1020.2
20260831194841 65 148 5.0 8.0 0.00 0.10 0.10 98 1020.5
20260831193841 65 139 2.0 7.0 0.00 0.10 0.10 98 1020.6
20260831191840 65 155 6.0 9.0 0.00 0.10 0.10 98 1020.8
20260831190840 65 144 5.0 9.0 0.00 0.10 0.10 98 1021.0
20260831185840 65 137 5.0 8.0 0.00 0.10 0.10 98 1021.2
20260831184840 65 146 5.0 9.0 0.00 0.10 0.10 98 1021.3
20260831183840 65 121 7.0 9.0 0.00 0.10 0.10 98 1021.2
20260831182839 65 145 4.0 8.0 0.00 0.10 0.10 98 1021.3
20260831181839 64 141 5.0 10.0 0.01 0.10 0.10 98 1021.3
20260831180839 64 153 4.0 8.0 0.01 0.10 0.10 97 1021.5
20260831174839 64 165 6.0 7.0 0.02 0.10 0.10 97 1021.8
20260831173838 64 179 4.0 8.0 0.02 0.10 0.10 97 1021.7
20260831172838 65 147 2.0 10.0 0.02 0.10 0.10 98 1021.8
20260831171838 64 155 9.0 11.0 0.01 0.09 0.09 97 1021.9
20260831165838 64 106 7.0 10.0 0.03 0.09 0.09 98 1022.1
20260831164838 64 141 8.0 8.0 0.03 0.08 0.08 98 1022.2
20260831163837 64 138 3.0 8.0 0.05 0.08 0.08 98 1022.1
20260831162837 64 143 4.0 7.0 0.06 0.08 0.08 98 1022.2
20260831161837 64 157 5.0 7.0 0.07 0.08 0.08 98 1022.4
20260831160837 64 172 2.0 6.0 0.06 0.07 0.07 98 1022.4
20260831155837 63 190 5.0 5.0 0.06 0.06 0.06 98 1022.3
20260831154836 63 214 2.0 6.0 0.05 0.05 0.05 98 1022.4
20260831153837 63 159 6.0 11.0 0.03 0.03 0.03 97 1022.3
20260831144836 64 142 9.0 11.0 0.00 0.00 0.00 96 1022.5
20260831143836 64 159 6.0 12.0 0.00 0.00 0.00 96 1022.1
20260831142835 63 149 6.0 11.0 0.00 0.00 0.00 97 1022.0
20260831141835 63 149 6.0 8.0 0.00 0.00 0.00 97 1022.2
20260831140835 63 177 3.0 7.0 0.00 0.00 0.00 97 1022.3
20260831135835 63 159 5.0 9.0 0.00 0.00 0.00 98 1022.1
20260831133834 62 144 8.0 13.0 0.00 0.00 0.00 99 1021.9
20260831132904 62 186 3.0 10.0 0.00 0.00 0.00 100 1021.8
20260831131834 61 178 4.0 6.0 0.00 0.00 0.00 100 1022.0
20260831130903 61 205 4.0 6.0 0.00 0.00 0.00 100 1022.0
20260831125904 61 179 2.0 5.0 0.00 0.00 0.00 100 1022.2
20260831124833 61 207 4.0 6.0 0.00 0.00 0.00 100 1022.4
20260831123833 60 172 1.0 5.0 0.00 0.00 0.00 100 1022.3
20260831121902 60 178 3.0 4.0 0.00 0.00 0.00 100 1022.6
20260831120903 59 198 2.0 4.0 0.00 0.00 0.00 100 1022.5
20260831114903 59 170 0.0 5.0 0.00 0.00 0.00 100 1022.6
20260831113902 59 208 1.0 3.0 0.00 0.00 0.00 100 1022.7
20260831112902 59 209 1.0 3.0 0.00 0.00 0.00 100 1022.4
20260831111902 59 208 3.0 5.0 0.00 0.00 0.00 100 1022.6
20260831110902 58 216 4.0 4.0 0.00 0.00 0.00 100 1022.3
20260831105902 58 194 3.0 4.0 0.00 0.00 0.00 100 1022.1
20260831104831 58 190 3.0 5.0 0.00 0.00 0.00 100 1022.0
20260831103901 58 197 2.0 3.0 0.00 0.00 0.00 100 1022.0
20260831102831 58 197 0.0 0.0 0.00 0.00 0.00 100 1021.9
20260831094901 58 197 2.0 5.0 0.00 0.00 0.00 100 1021.6
20260831093900 58 202 4.0 5.0 0.00 0.00 0.00 100 1021.7
20260831091900 57 185 3.0 4.0 0.00 0.00 0.00 99 1021.7
20260831090900 58 184 1.0 2.0 0.00 0.00 0.00 100 1021.8
20260831085900 58 184 1.0 3.0 0.00 0.00 0.00 100 1021.8
20260831084900 58 184 2.0 4.0 0.00 0.00 0.00 99 1021.9
20260831083859 58 202 3.0 3.0 0.00 0.00 0.00 100 1021.9
20260831082859 58 203 0.0 0.0 0.00 0.00 0.00 99 1021.9
20260831081859 59 203 0.0 2.0 0.00 0.00 0.00 99 1021.9
20260831080859 59 201 2.0 3.0 0.00 0.00 0.00 99 1021.7
20260831075859 59 200 2.0 3.0 0.00 0.00 0.00 99 1021.7
20260831074859 59 200 0.0 2.0 0.00 0.00 0.00 99 1021.8
20260831072858 59 200 2.0 3.0 0.00 0.00 0.00 99 1021.9
20260831071858 59 201 2.0 4.0 0.00 0.00 0.00 99 1021.8
20260831070858 59 204 1.0 5.0 0.00 0.00 0.00 99 1022.1
20260831065857 59 215 2.0 4.0 0.00 0.00 0.00 99 1022.1
20260831064857 59 217 0.0 0.0 0.00 0.00 0.00 98 1021.9
20260831063857 59 217 0.0 0.0 0.00 0.00 0.00 99 1022.0
20260831062857 59 217 0.0 0.0 0.00 0.00 0.00 99 1022.0
20260831061857 60 217 0.0 3.0 0.00 0.00 0.00 99 1022.1
20260831060857 59 217 3.0 4.0 0.00 0.00 0.00 99 1022.2
20260831055856 59 218 0.0 0.0 0.00 0.00 0.00 99 1022.5
20260831054856 59 218 0.0 0.0 0.00 0.00 0.00 99 1022.6
20260831053856 58 218 0.0 0.0 0.00 0.00 0.00 98 1022.7
20260831052856 59 218 0.0 0.0 0.00 0.00 0.00 98 1022.6
20260831050856 59 218 0.0 0.0 0.00 0.00 0.00 97 1022.7
20260831045856 60 237 0.0 2.0 0.00 0.00 0.00 98 1022.9
20260831044855 60 238 2.0 3.0 0.00 0.00 0.00 98 1022.9
20260831043855 60 238 0.0 0.0 0.00 0.00 0.00 97 1022.9
20260831042855 60 237 0.0 0.0 0.00 0.00 0.00 97 1022.8
20260831041855 60 237 0.0 0.0 0.00 0.00 0.00 97 1022.9
20260831034855 60 238 0.0 0.0 0.00 0.00 0.00 96 1022.8
20260831032854 61 237 0.0 0.0 0.00 0.00 0.00 96 1022.5
20260831031854 61 237 0.0 0.0 0.00 0.00 0.00 96 1022.7
20260831025853 62 238 0.0 3.0 0.00 0.00 0.00 97 1022.6
20260831024853 62 234 3.0 3.0 0.00 0.00 0.00 97 1022.8
20260831023853 62 226 1.0 2.0 0.00 0.00 0.00 96 1022.5
20260831021853 63 226 0.0 1.0 0.00 0.00 0.00 96 1022.6
20260831020853 63 226 1.0 3.0 0.00 0.00 0.00 96 1022.5
20260831015853 63 217 0.0 3.0 0.00 0.00 0.00 96 1022.5
20260831014852 63 158 1.0 3.0 0.00 0.00 0.00 96 1022.6
20260831011852 64 148 0.0 0.0 0.00 0.00 0.00 95 1022.8
20260831010852 64 148 0.0 2.0 0.00 0.00 0.00 95 1022.7
20260831005851 64 148 0.0 3.0 0.00 0.00 0.00 95 1022.5
20260831004851 64 146 1.0 3.0 0.00 0.00 0.00 94 1022.2